TimeEST,TemperatureF,Dew PointF,Humidity,Sea Level PressureIn,VisibilityMPH,Wind Direction,Wind SpeedMPH,Gust SpeedMPH,PrecipitationIn,Events,Conditions,WindDirDegrees,DateUTC
12:53 AM,59.0,54.0,83,30.13,10.0,Calm,Calm,-,N/A,,Clear,0,2012-11-26 05:53:00
1:53 AM,57.9,55.0,90,30.13,10.0,Calm,Calm,-,N/A,,Mostly Cloudy,0,2012-11-26 06:53:00
2:53 AM,61.0,55.9,83,30.12,10.0,Calm,Calm,-,N/A,,Mostly Cloudy,0,2012-11-26 07:53:00
3:53 AM,63.0,57.0,81,30.12,10.0,NNW,3.5,-,N/A,,Mostly Cloudy,340,2012-11-26 08:53:00
4:53 AM,61.0,57.0,87,30.13,10.0,Calm,Calm,-,N/A,,Mostly Cloudy,0,2012-11-26 09:53:00
5:53 AM,61.0,57.0,87,30.14,10.0,Calm,Calm,-,N/A,,Mostly Cloudy,0,2012-11-26 10:53:00
6:53 AM,60.1,57.9,93,30.16,10.0,Calm,Calm,-,N/A,,Clear,0,2012-11-26 11:53:00
7:53 AM,61.0,57.9,90,30.18,10.0,Calm,Calm,-,N/A,,Clear,0,2012-11-26 12:53:00
8:53 AM,72.0,60.1,66,30.19,10.0,Calm,Calm,-,N/A,,Scattered Clouds,0,2012-11-26 13:53:00
9:53 AM,75.9,61.0,60,30.21,10.0,Calm,Calm,-,N/A,,Mostly Cloudy,0,2012-11-26 14:53:00
10:53 AM,75.9,61.0,60,30.21,10.0,SE,4.6,-,N/A,,Scattered Clouds,130,2012-11-26 15:53:00
11:53 AM,79.0,62.1,56,30.20,10.0,SE,8.1,-,N/A,,Overcast,140,2012-11-26 16:53:00
12:53 PM,79.0,61.0,54,30.17,10.0,ESE,9.2,-,N/A,,Scattered Clouds,120,2012-11-26 17:53:00
1:53 PM,79.0,59.0,50,30.14,10.0,ESE,8.1,-,N/A,,Clear,110,2012-11-26 18:53:00
2:53 PM,78.1,59.0,52,30.14,10.0,East,10.4,-,N/A,,Partly Cloudy,90,2012-11-26 19:53:00
3:53 PM,77.0,57.9,52,30.14,10.0,SE,9.2,-,N/A,,Clear,130,2012-11-26 20:53:00
4:53 PM,75.9,59.0,56,30.15,10.0,East,11.5,-,N/A,,Clear,100,2012-11-26 21:53:00
5:53 PM,73.0,59.0,61,30.15,10.0,ESE,5.8,-,N/A,,Clear,110,2012-11-26 22:53:00
6:53 PM,73.0,60.1,64,30.17,10.0,ESE,5.8,-,N/A,,Partly Cloudy,110,2012-11-26 23:53:00
7:53 PM,71.1,60.1,68,30.19,10.0,ESE,6.9,-,N/A,,Clear,110,2012-11-27 00:53:00
8:53 PM,72.0,60.1,66,30.20,10.0,SE,4.6,-,N/A,,Clear,130,2012-11-27 01:53:00
9:53 PM,71.1,60.1,68,30.21,10.0,SE,3.5,-,N/A,,Partly Cloudy,140,2012-11-27 02:53:00
10:53 PM,71.1,61.0,70,30.20,10.0,SE,3.5,-,N/A,,Partly Cloudy,130,2012-11-27 03:53:00
11:53 PM,69.1,60.1,73,30.19,10.0,SE,3.5,-,N/A,,Partly Cloudy,130,2012-11-27 04:53:00